Theta_e
321 320 321 321 321 322 322 321 323 323 323 325 324 323 319 315 315 313 312 311 312 310 308 308 308 307 307 307 306 307 306 308 309 306 308 309 307 306 306 305 306 305 305 305 305 305 304 305 304 304 303 302 302 302 302 302 302 302 302 302 302 303 303 302 301 300 299 300 300 300 300 301 303 308 314 316 317 317 317 318 317 318 318 318 318 317 317 316 317 317 318 317 316 313 318 327 330
321 321 321 320 322 322 321 321 327 332 329 326 323 321 317 313 314 318 319 315 313 310 308 309 309 309 308 308 306 307 307 307 307 306 307 307 306 306 305 305 305 305 305 305 305 305 305 305 304 304 303 302 302 302 302 302 302 302 302 302 302 303 303 302 301 300 300 300 300 300 300 301 300 304 312 315 316 317 317 317 317 317 317 316 316 316 316 315 315 316 318 317 317 314 314 322 328
320 321 320 322 322 320 323 323 327 334 329 329 332 321 313 314 318 322 319 313 310 308 309 310 309 310 309 308 307 308 309 307 306 307 307 307 306 306 306 305 305 305 305 305 305 305 304 304 304 303 302 303 302 302 302 302 302 301 302 301 302 302 302 302 301 301 301 300 300 301 300 301 300 302 308 311 314 316 316 316 316 317 317 316 316 316 315 315 315 315 316 316 317 317 315 317 324
320 321 320 322 321 320 332 333 332 335 327 328 329 318 316 321 323 319 312 310 309 308 308 309 309 309 308 309 308 307 307 307 307 307 307 307 306 306 305 305 306 305 305 305 305 305 304 304 303 303 303 303 302 302 302 302 302 302 302 301 301 302 302 302 302 302 301 301 300 301 300 300 300 301 304 309 313 315 315 316 316 316 316 316 316 315 314 314 315 315 316 316 317 317 317 315 319
320 322 321 321 322 320 328 327 326 330 327 327 319 315 319 322 322 313 308 309 308 308 308 308 309 308 309 309 308 307 306 307 307 307 307 307 307 306 305 305 305 305 305 305 305 304 304 304 303 303 303 303 302 302 302 302 302 302 302 301 301 301 302 302 302 302 302 301 301 300 300 300 299 301 306 311 314 314 315 315 315 315 315 315 314 314 313 312 313 314 315 315 316 316 318 316 315
320 320 319 320 319 316 321 320 320 326 327 324 317 317 319 315 313 309 307 308 307 308 308 307 308 307 307 308 308 307 307 307 307 307 306 307 307 305 305 305 305 305 305 304 304 304 304 304 303 303 303 303 302 302 302 302 302 302 302 302 302 301 301 302 302 302 302 301 301 300 299 299 299 302 308 313 313 314 314 313 313 313 313 313 312 312 312 311 311 313 313 313 315 315 317 316 313
321 320 318 320 316 315 325 325 325 326 319 314 314 317 314 308 307 307 307 307 307 307 307 307 307 307 307 308 308 308 307 307 307 307 307 307 307 305 305 305 305 305 305 304 304 304 304 303 303 303 303 303 303 303 302 302 302 302 302 302 302 302 301 301 302 302 302 301 300 300 299 299 299 303 309 313 313 315 314 312 312 312 312 312 312 312 313 313 311 311 312 312 314 314 315 316 313
321 320 317 321 320 319 328 324 323 323 312 307 308 310 308 306 306 307 306 306 307 306 306 307 305 307 308 307 308 308 307 308 307 307 307 307 307 306 305 304 305 304 304 304 304 304 304 303 303 303 303 303 303 303 302 302 302 302 302 302 302 302 301 301 301 302 302 301 300 300 300 299 300 304 309 313 314 314 313 312 312 312 311 312 312 312 313 313 313 312 311 311 312 313 313 315 314
319 319 316 321 323 322 326 319 317 316 311 309 306 307 306 307 307 306 307 305 305 305 306 306 305 307 307 305 307 308 307 307 307 307 307 307 307 306 305 304 304 304 304 304 304 304 304 303 303 303 303 303 303 302 302 302 302 302 302 302 302 302 302 301 301 301 302 301 301 300 300 299 300 304 311 314 313 313 312 312 312 311 310 311 312 313 313 313 313 313 312 311 311 312 312 313 313
318 318 315 320 323 320 320 317 316 314 311 309 304 306 307 307 307 305 306 305 305 305 305 306 306 307 306 305 306 307 307 307 307 307 307 307 306 306 305 304 304 304 304 304 304 304 304 303 303 303 303 303 303 302 302 302 302 302 302 302 302 302 302 302 301 301 301 301 301 301 300 300 300 305 313 314 312 312 312 312 312 310 310 312 313 313 314 313 313 313 313 312 310 311 312 313 312
317 316 315 323 325 319 318 317 320 320 312 306 304 306 307 307 306 304 304 305 305 304 305 306 306 306 305 305 307 307 307 307 308 308 307 307 306 306 305 304 304 304 304 304 304 304 303 303 303 303 303 303 303 302 303 302 302 302 302 302 302 303 302 302 301 301 301 301 301 301 301 300 301 309 314 313 312 313 313 312 311 310 310 313 314 313 314 314 314 313 314 313 311 310 311 312 312
317 317 325 330 323 318 318 318 322 323 317 310 307 307 307 306 306 305 304 305 305 304 305 306 306 306 305 306 307 307 307 308 308 307 307 307 306 305 305 304 304 304 304 304 304 303 303 303 303 303 303 303 303 302 303 302 303 302 302 303 302 302 303 302 302 301 301 301 301 301 301 300 302 312 314 313 313 313 312 312 311 310 310 312 313 313 314 314 315 314 314 314 312 311 311 311 311
317 318 332 327 315 316 316 316 318 318 320 314 307 306 306 305 305 305 304 304 304 304 306 306 306 306 306 306 306 307 307 307 307 307 307 306 306 305 305 305 304 304 304 303 304 303 303 303 303 303 303 303 303 303 303 303 303 303 303 303 303 303 302 303 302 301 301 301 301 301 301 300 304 313 314 313 314 313 312 312 312 310 310 312 313 313 314 314 314 314 314 313 312 311 312 311 311
315 316 327 320 310 315 316 315 314 315 321 316 306 305 306 305 305 305 305 305 304 305 306 306 306 306 307 307 306 307 306 306 306 306 307 306 306 305 305 305 305 305 304 304 304 304 303 303 303 303 303 303 303 303 303 303 303 303 303 303 302 303 302 303 302 302 301 301 301 301 301 300 306 314 314 313 314 314 313 313 313 310 310 312 313 313 314 314 313 312 313 312 311 311 312 311 311
315 312 321 322 312 314 314 313 313 316 320 313 305 304 305 305 305 305 305 306 306 305 306 306 306 306 307 307 306 307 305 306 306 306 306 306 306 306 306 305 305 305 305 305 304 304 303 303 303 303 303 303 303 303 303 303 303 303 303 303 302 303 303 303 303 302 301 301 301 301 301 300 308 314 314 314 313 314 314 313 314 310 308 311 312 313 315 314 312 311 311 311 311 311 311 310 312
314 312 321 324 314 313 312 309 310 315 316 307 304 305 305 305 305 305 306 306 306 306 306 306 306 307 307 306 307 306 306 306 307 307 306 306 306 306 306 305 305 305 305 305 304 304 304 304 303 303 303 303 303 303 304 303 303 303 303 303 303 303 303 303 303 302 302 301 301 301 301 301 308 314 314 314 314 315 314 314 314 310 308 310 312 313 314 314 312 310 309 310 311 311 311 311 313
312 318 326 322 316 316 313 311 311 313 315 306 302 305 305 306 305 305 306 305 306 306 306 307 306 307 307 307 307 307 306 306 307 307 307 306 307 306 306 305 305 305 305 305 304 304 304 304 304 304 304 304 304 304 305 305 304 304 304 304 303 303 303 303 303 303 302 301 301 301 301 301 307 313 314 315 315 314 314 314 315 312 310 311 312 312 314 314 313 311 309 309 311 311 311 311 313
315 327 323 317 322 320 315 314 309 308 312 307 303 304 305 306 305 305 306 305 306 306 306 306 307 307 307 307 307 307 306 306 307 307 307 307 306 306 306 305 305 305 305 305 305 305 304 304 304 304 305 305 306 306 306 306 306 306 305 305 304 304 303 303 303 303 303 302 301 301 301 300 305 311 313 314 315 314 313 313 313 313 312 311 312 312 313 314 313 311 309 310 311 311 312 312 313
317 324 316 322 329 315 308 308 305 305 308 305 304 304 304 305 305 305 306 306 305 306 306 305 306 307 306 307 306 306 306 307 307 307 307 307 306 306 305 305 305 305 305 305 305 305 304 304 305 305 306 306 307 307 307 307 307 307 306 306 305 304 303 303 303 303 303 302 301 301 301 300 302 309 312 313 315 313 313 313 312 314 313 311 312 312 312 314 313 310 308 309 310 311 312 311 313
311 315 318 328 320 306 303 304 304 305 306 304 304 303 303 304 304 306 306 305 305 306 307 306 306 307 307 307 306 306 307 307 307 307 307 306 306 306 305 305 305 306 305 306 305 305 305 305 306 306 306 307 307 307 307 307 307 306 306 306 305 304 304 303 303 303 303 302 302 301 301 300 301 306 310 313 315 314 313 313 313 314 314 312 313 313 312 313 313 310 308 309 310 311 312 312 313
308 312 320 317 305 305 306 304 305 305 305 304 304 303 304 305 305 305 305 307 309 306 306 307 307 307 307 307 307 307 308 307 307 307 307 306 306 306 305 306 306 306 305 306 306 305 305 306 306 306 306 306 307 307 307 306 306 306 306 306 305 305 304 304 303 303 303 303 302 301 301 301 300 303 308 312 315 314 313 314 313 313 313 313 313 312 311 311 313 311 308 308 310 310 311 312 313
308 307 308 304 301 307 306 303 305 304 305 304 303 304 305 305 305 305 305 309 311 307 306 307 307 307 307 307 307 307 307 307 307 306 306 306 306 306 306 306 306 306 306 306 306 306 306 306 307 306 306 307 307 307 306 306 306 306 306 305 305 305 305 304 304 303 303 303 303 302 301 301 300 301 305 310 314 314 313 313 313 313 313 313 313 312 310 313 314 311 308 309 310 311 311 312 312
309 306 301 302 303 306 305 304 305 304 304 304 303 305 305 305 306 305 305 307 308 306 307 307 306 307 307 308 307 307 307 306 306 306 307 307 307 307 306 306 306 306 306 306 306 306 306 307 307 307 307 307 307 307 306 306 306 306 306 306 305 305 305 305 304 304 303 303 303 302 302 301 301 300 302 307 312 314 313 314 315 313 314 314 313 312 311 314 316 312 310 309 309 310 311 311 312
311 310 302 302 303 304 305 305 305 305 304 305 304 305 304 305 306 305 304 307 307 306 307 306 307 307 306 307 307 307 307 306 306 308 308 308 308 307 307 307 307 306 306 306 306 306 307 307 307 307 307 307 307 307 307 306 306 306 306 306 305 305 305 305 305 304 304 303 303 303 302 301 301 301 300 302 309 314 314 315 316 315 316 315 314 314 311 313 316 314 311 309 308 310 310 311 312
310 311 303 302 304 304 305 305 305 305 305 305 305 305 305 306 305 303 306 308 308 306 307 306 306 306 306 307 307 307 306 306 307 308 308 308 308 308 307 307 307 307 306 306 306 307 307 307 307 306 306 307 307 306 307 306 306 306 306 306 305 305 305 305 305 305 304 304 303 303 303 302 301 301 301 300 303 311 315 315 315 316 318 316 314 315 312 312 315 312 309 309 309 310 310 311 313
306 306 303 303 304 304 305 304 304 305 305 305 305 306 305 304 305 306 308 308 308 308 307 308 307 307 308 307 307 307 306 307 308 308 308 308 308 308 307 307 307 307 307 306 306 306 306 307 306 306 306 307 306 306 306 306 306 306 306 305 305 305 305 305 305 305 305 304 304 303 303 302 302 301 301 300 300 305 314 316 316 317 318 317 314 316 315 313 314 311 310 313 311 311 311 314 317
304 303 303 303 304 304 304 304 305 305 305 305 306 307 306 304 306 310 310 308 308 309 308 308 308 308 308 307 307 307 306 307 308 308 308 308 308 308 308 307 307 307 307 307 306 306 306 307 306 306 306 306 306 306 306 306 306 306 306 305 305 305 305 305 304 305 305 305 304 303 303 302 302 302 301 301 300 300 308 315 316 316 317 317 315 316 316 313 313 314 315 317 316 315 315 319 322
303 304 304 303 303 304 304 304 305 305 305 305 305 305 304 303 307 311 309 308 308 308 309 308 308 308 307 307 307 306 307 307 307 308 308 308 308 307 308 307 307 307 307 307 306 306 306 306 307 307 306 306 306 306 306 306 306 306 306 306 305 305 305 305 304 304 305 305 305 304 304 303 302 302 301 301 301 299 302 309 315 316 316 316 316 316 316 314 312 314 317 319 319 318 316 319 323
304 304 306 305 305 306 304 304 304 305 306 305 304 309 310 308 309 310 308 308 308 308 309 308 307 308 307 307 307 306 307 307 307 308 308 308 308 308 308 307 307 307 307 307 306 306 306 306 307 306 306 306 306 306 306 306 306 306 306 306 305 305 305 305 305 304 304 304 304 304 304 304 303 303 302 301 301 300 300 302 309 314 315 315 316 316 316 315 312 312 316 318 320 319 316 317 321
305 304 306 311 311 310 304 304 305 305 307 305 305 316 324 320 312 308 308 308 308 308 308 308 308 308 307 307 307 307 307 307 308 308 308 308 308 308 308 308 307 307 307 307 307 306 306 307 307 307 306 306 306 306 306 306 306 306 305 305 305 305 305 305 304 304 304 304 304 304 304 304 304 303 303 302 301 301 300 300 302 307 312 314 315 315 316 316 315 314 316 317 318 320 320 320 322
310 304 309 317 313 312 307 303 306 306 307 305 307 317 325 323 313 307 309 309 309 309 308 308 308 307 307 307 307 307 307 308 308 308 308 308 308 308 309 309 308 308 307 307 307 306 307 307 307 307 307 306 307 306 306 306 306 306 305 305 305 305 305 304 304 304 304 304 304 304 304 304 304 304 303 303 302 301 301 300 300 301 306 312 314 315 315 316 316 315 316 317 318 319 321 322 323
319 308 316 321 312 316 312 303 303 307 307 305 309 318 321 317 310 308 308 309 308 308 308 308 308 308 308 308 307 307 308 308 308 309 309 309 309 309 309 309 308 308 308 307 307 307 307 307 307 307 307 307 307 306 306 306 306 306 305 305 305 305 305 304 304 304 304 304 304 304 304 304 304 304 304 303 303 302 301 301 300 300 301 305 311 314 315 315 316 316 315 315 317 318 320 321 321
323 314 318 320 313 319 316 306 302 303 306 306 309 315 320 316 308 308 308 308 308 308 309 309 309 309 308 308 308 307 308 308 308 309 309 309 309 309 309 309 309 308 308 307 307 307 307 307 307 307 307 307 307 306 306 306 306 306 305 305 305 305 305 305 304 304 304 303 304 303 303 304 304 304 304 304 303 303 302 301 301 301 300 300 304 310 313 315 316 316 315 314 315 316 318 319 320
320 316 317 316 314 316 316 314 304 302 307 309 309 311 316 315 308 309 310 309 308 307 309 310 310 310 309 309 308 308 308 308 309 309 308 309 309 309 310 309 309 308 308 308 307 307 307 307 307 307 307 307 306 306 306 306 306 305 305 305 305 305 305 305 304 304 304 303 303 303 303 303 303 303 303 304 304 303 303 302 301 301 301 300 300 302 307 312 315 316 316 316 315 315 316 317 318
317 316 315 314 315 315 320 321 308 305 311 311 311 311 313 312 306 307 310 308 307 306 308 310 310 310 310 310 309 308 308 309 309 309 309 309 310 310 309 309 309 309 308 308 308 307 307 307 307 307 306 306 306 306 306 306 306 305 306 305 305 305 305 304 304 304 304 304 304 303 303 303 303 303 303 303 303 304 303 303 302 302 301 301 300 300 301 305 310 314 316 317 317 316 315 316 316
318 319 320 318 318 319 321 318 307 304 312 314 314 314 313 312 309 307 308 307 306 306 307 308 310 311 310 310 310 309 309 309 308 308 310 309 310 310 309 309 308 308 308 308 308 307 307 307 306 306 306 306 306 306 306 305 306 306 305 305 305 305 305 305 304 304 304 304 304 304 303 303 303 303 303 303 303 303 304 303 303 302 302 301 301 300 300 300 302 306 310 313 316 317 316 316 316
317 321 324 320 319 323 319 312 306 301 310 317 312 313 313 312 312 308 305 307 305 306 306 307 310 310 311 310 310 310 309 309 309 309 310 309 310 309 309 309 308 308 308 308 307 307 307 306 306 306 306 306 306 306 306 306 306 306 306 306 305 305 305 305 304 305 304 304 304 304 304 304 303 303 303 303 303 303 303 303 304 303 303 302 302 301 301 300 300 300 302 305 309 311 313 315 316
318 321 324 321 319 323 316 308 308 304 308 316 310 313 316 311 311 307 303 306 307 306 306 308 310 310 310 311 310 310 309 309 309 309 309 309 310 309 309 309 308 308 308 307 307 307 307 306 306 306 306 306 306 306 306 306 306 306 306 306 306 305 305 305 305 305 305 304 304 304 304 304 304 303 303 303 303 303 303 303 303 303 303 303 303 302 301 301 300 300 300 300 302 303 305 309 312
321 320 320 322 318 319 315 308 311 309 309 317 315 314 315 311 312 309 303 307 308 306 307 308 309 310 309 310 310 310 309 310 310 309 310 309 309 309 309 309 308 308 308 308 307 307 307 306 306 306 306 306 306 306 306 306 306 306 306 306 306 306 305 305 305 305 305 304 304 304 304 304 304 304 304 303 303 303 303 303 303 303 303 303 303 303 302 302 301 301 301 300 300 300 301 303 305
319 318 318 320 314 314 318 313 312 310 307 313 315 313 314 314 319 317 306 305 307 307 308 308 308 310 309 310 310 310 309 310 310 309 309 309 309 309 309 308 308 308 308 307 307 307 307 306 306 306 306 306 306 306 306 306 306 306 306 306 306 306 305 305 305 305 305 305 304 304 305 305 305 305 304 304 304 303 303 303 303 303 303 303 303 303 303 303 302 302 301 301 301 301 300 300 300
316 315 316 317 313 310 315 314 312 312 308 308 312 316 321 322 325 326 313 306 308 307 308 309 309 309 310 310 310 310 310 310 309 309 309 309 309 309 309 308 308 308 307 307 307 307 307 306 306 306 306 306 306 306 306 306 306 306 306 306 306 306 306 306 306 306 306 306 305 305 305 305 305 305 305 305 304 304 304 303 303 303 303 302 303 303 303 303 303 303 303 302 302 302 301 301 300
317 313 310 310 311 309 313 314 314 321 317 308 309 317 329 333 326 324 322 319 318 310 306 308 309 309 310 310 310 310 310 310 309 309 309 309 309 309 309 308 308 308 307 307 307 307 307 307 307 307 306 306 306 306 306 307 307 307 307 307 307 308 307 307 307 307 307 307 307 306 306 306 306 305 305 305 305 305 304 304 304 303 303 302 302 302 302 302 302 303 303 303 303 303 302 302 302
317 310 306 307 309 310 314 316 315 321 318 307 307 312 324 335 326 320 323 327 327 315 307 307 309 309 309 310 310 310 310 310 310 310 309 309 309 309 308 308 308 308 308 307 307 307 307 307 307 307 307 306 307 306 306 307 307 307 307 307 308 308 308 308 307 307 307 307 307 307 306 306 306 306 305 305 305 305 305 305 304 304 303 303 302 302 302 302 302 302 302 302 302 302 302 303 302
315 307 306 309 309 310 312 314 314 317 315 311 310 311 315 328 328 324 319 320 321 316 311 310 309 309 309 309 310 310 310 310 310 310 309 308 309 309 308 308 309 308 308 308 308 308 307 307 307 307 307 307 307 307 307 307 307 307 307 307 308 307 307 307 307 307 307 307 307 306 307 306 306 306 306 306 306 305 305 305 305 304 304 304 303 303 302 302 302 302 302 302 302 302 302 302 302
311 305 305 307 307 310 310 312 316 314 314 319 317 310 313 329 336 324 314 314 316 315 317 314 309 309 309 309 310 310 310 310 309 309 309 309 309 309 309 309 309 308 308 308 308 308 308 307 307 307 307 307 307 307 307 307 307 307 307 307 307 307 307 307 307 307 306 306 306 306 306 306 306 306 306 306 306 306 305 305 305 304 304 304 304 304 303 303 303 302 302 302 302 301 301 301 301
306 302 305 306 307 309 309 311 316 314 317 324 319 309 312 332 340 322 310 316 319 318 321 314 308 309 309 309 310 310 310 309 309 309 309 309 309 309 309 309 309 308 308 308 308 308 308 308 307 307 307 307 307 307 307 307 307 307 307 307 307 307 307 306 306 307 306 306 306 306 306 306 306 306 305 306 306 305 305 305 305 305 305 304 304 304 304 304 303 303 303 302 302 302 302 301 301
303 304 308 309 311 310 310 314 315 315 325 325 314 309 312 323 334 324 315 321 324 320 319 313 308 309 310 310 310 310 310 309 309 309 309 309 309 309 309 308 308 308 308 308 308 308 308 308 308 307 307 307 307 307 307 307 306 307 306 306 306 306 306 306 306 306 306 306 306 306 305 305 305 305 305 305 305 305 305 305 305 305 305 305 305 304 304 304 304 304 303 303 303 302 302 302 302
303 311 314 313 318 315 316 324 319 317 331 322 310 310 311 317 328 323 319 323 322 318 317 314 310 309 309 310 310 310 310 309 310 310 309 309 309 309 308 308 308 308 308 308 308 308 308 308 308 307 307 307 306 306 306 306 306 306 306 306 306 306 306 306 306 306 306 305 305 305 305 305 305 305 305 305 305 305 304 304 304 304 304 304 304 304 304 304 304 304 304 304 303 303 303 302 302
307 317 322 320 327 324 322 332 323 320 327 314 309 312 311 318 324 320 321 323 318 313 312 313 310 309 310 310 310 310 310 310 309 309 309 309 308 309 308 308 308 308 308 308 307 308 307 307 306 307 307 306 306 306 306 306 306 306 306 306 306 305 305 305 305 305 305 305 305 305 305 305 304 304 304 304 304 304 304 304 304 304 304 304 304 304 304 304 304 304 304 304 303 303 303 303 302
310 318 325 323 325 322 324 330 319 317 321 311 307 312 316 322 318 316 321 317 310 306 307 309 310 310 310 310 310 310 309 310 309 308 308 308 308 308 308 308 308 308 307 307 307 306 306 306 306 306 307 306 306 306 306 306 306 306 306 306 306 306 306 306 305 305 305 305 305 305 304 304 304 304 304 303 303 303 303 303 303 303 303 304 304 304 304 304 304 304 304 303 303 303 303 303 303
311 312 316 320 322 316 320 327 318 314 320 316 310 313 325 325 313 313 312 307 305 306 307 309 309 310 310 310 310 310 310 310 308 308 308 308 308 308 308 307 307 307 306 306 306 305 306 306 306 306 306 306 306 306 306 306 306 306 306 306 306 306 306 306 305 305 305 305 304 304 304 304 304 304 304 303 303 303 303 303 302 303 303 303 303 303 303 303 303 303 303 303 303 303 303 303 303
309 307 313 316 318 319 317 315 314 313 319 323 317 318 328 321 312 312 307 305 306 306 307 309 308 309 310 310 310 309 310 309 307 308 308 307 307 306 307 307 306 306 306 306 306 305 306 306 306 306 306 306 306 306 307 307 306 307 307 307 307 306 306 305 305 305 305 304 304 304 304 304 304 304 304 304 304 304 303 303 303 303 303 303 303 303 303 303 303 302 302 302 302 302 302 302 302
308 311 316 311 307 317 319 309 307 309 316 324 319 320 327 318 314 317 312 310 310 307 308 308 308 309 309 309 310 309 310 309 307 308 307 306 306 306 306 306 306 306 305 305 306 305 306 306 306 306 306 306 307 307 307 307 307 307 307 307 307 306 306 306 305 305 304 304 304 304 304 304 304 304 304 303 303 303 303 303 303 303 303 303 303 303 303 303 303 303 303 303 302 302 302 302 301
310 313 313 307 304 313 318 314 316 316 319 327 321 319 327 323 320 320 313 312 314 311 310 307 306 309 308 309 310 310 310 308 307 307 306 306 306 305 306 305 305 305 305 305 305 305 305 305 306 306 306 307 307 307 307 307 307 307 307 307 307 306 306 306 305 305 304 304 304 304 304 304 303 303 303 303 303 303 303 303 303 303 303 303 303 303 303 303 303 303 303 303 303 303 302 302 302
307 308 305 307 313 316 315 317 321 319 317 325 324 319 319 320 324 323 315 314 315 314 312 310 308 307 308 309 310 310 309 307 307 307 306 306 305 305 305 305 305 305 305 305 305 305 305 305 305 306 306 307 306 307 307 307 307 307 307 307 306 306 306 306 305 305 305 305 305 304 304 303 303 302 302 302 302 302 302 301 301 301 301 301 301 301 302 302 302 302 302 302 302 302 302 302 302
302 304 303 306 314 317 315 315 317 318 319 321 326 326 323 323 327 327 319 314 313 313 314 312 308 307 309 310 310 310 308 307 307 306 306 306 305 305 305 305 305 305 305 305 304 304 305 305 305 305 306 306 306 306 306 307 307 306 306 306 306 306 306 305 305 305 305 305 304 303 303 302 302 301 301 300 300 300 300 299 299 299 299 299 299 299 299 299 300 300 300 300 300 300 301 301 300
307 311 311 309 310 310 311 311 311 317 324 322 321 326 333 332 324 322 321 315 311 311 314 310 306 308 311 310 310 311 308 307 307 306 306 306 305 305 305 305 305 305 305 304 304 304 304 304 305 305 305 305 306 306 306 306 306 305 305 305 305 305 305 305 304 304 304 303 303 302 302 301 300 300 299 299 298 298 297 297 297 297 297 296 296 296 296 296 296 297 296 297 297 297 297 297 297
311 317 317 315 315 315 317 316 311 311 316 320 319 320 328 329 318 319 323 316 309 307 307 307 307 309 311 310 311 311 308 307 306 305 306 305 305 305 305 305 305 304 304 304 303 304 304 304 304 304 305 305 305 305 305 305 305 305 305 305 305 304 304 304 303 303 303 302 302 301 300 299 299 299 298 297 297 296 295 295 295 295 294 294 294 294 294 294 294 293 293 293 293 293 293 293 293
Wind_Speed
5 5 4 4 3 3 3 3 1 3 3 1 2 1 2 1 2 1 2 2 1 2 4 3 2 4 3 1 3 4 4 5 4 2 2 5 9 12 12 12 12 11 12 12 12 11 12 12 12 11 10 11 11 12 12 13 13 13 13 13 12 13 13 14 14 15 16 17 18 19 20 20 20 20 20 21 22 22 22 22 21 21 22 22 22 22 22 22 23 23 22 24 23 24 28 30 26
5 5 4 4 4 3 1 3 1 3 4 2 3 3 3 1 1 4 6 5 3 2 4 3 2 3 4 4 4 4 6 7 6 6 6 8 10 12 12 12 11 11 11 11 11 11 11 11 11 10 10 11 11 12 12 13 13 13 13 13 13 13 14 14 15 16 17 18 19 20 21 22 23 23 21 22 23 24 24 24 23 22 23 23 23 22 22 22 22 22 23 25 25 22 25 31 30
5 4 4 4 5 5 2 3 2 1 4 1 4 3 2 1 4 7 7 6 3 3 4 3 3 4 4 3 4 3 4 5 6 7 7 8 10 13 13 12 11 11 11 11 11 11 11 11 11 10 11 11 12 12 13 13 14 15 14 14 14 14 15 16 17 17 18 19 20 21 22 23 23 24 24 25 25 25 24 24 25 24 24 25 24 23 22 22 21 22 23 25 25 23 22 28 33
5 5 4 4 4 4 4 4 2 3 2 3 2 3 3 5 7 7 4 4 3 3 3 1 2 4 4 3 3 4 5 5 4 4 5 7 11 14 13 12 11 11 11 11 11 11 11 11 11 11 12 12 13 13 13 14 15 16 16 16 16 16 16 17 18 18 19 20 20 21 22 22 23 24 25 26 25 25 25 24 24 25 25 25 25 25 22 21 21 22 23 24 23 23 20 23 31
6 5 3 3 3 2 3 3 2 3 2 4 1 4 5 6 6 4 2 4 4 3 3 2 2 3 5 6 4 3 3 2 2 3 5 7 11 14 13 12 11 11 11 11 11 11 11 11 11 11 12 13 13 13 14 14 15 16 17 17 17 17 17 18 19 19 19 20 20 21 22 22 22 23 25 26 27 27 25 24 23 23 24 25 24 24 23 20 19 22 26 27 23 22 20 21 29
7 6 5 4 5 3 3 2 1 1 4 5 2 5 5 7 6 3 3 3 4 3 4 4 3 4 5 7 7 6 4 3 4 4 6 8 11 13 13 12 12 11 10 10 10 11 11 12 11 12 13 13 13 14 14 15 15 17 17 18 17 17 18 19 19 19 19 20 20 21 22 22 23 24 26 28 28 26 25 25 24 23 24 24 23 22 22 19 17 19 24 26 24 23 22 22 27
8 5 5 6 5 4 3 2 3 3 3 4 3 5 5 6 6 3 2 1 3 4 5 6 5 4 4 5 6 8 7 7 6 6 7 8 10 13 13 12 11 11 11 11 11 11 11 12 11 12 13 13 14 14 15 15 16 17 18 18 18 18 18 19 19 20 20 20 21 21 22 23 24 25 28 29 27 24 24 25 23 24 24 23 21 20 21 20 18 17 20 22 23 24 24 24 25
8 4 4 5 4 5 3 1 3 3 2 3 4 5 6 4 7 5 3 2 1 3 5 7 6 3 3 4 4 5 5 6 6 6 7 8 9 12 14 12 12 11 11 11 11 11 10 11 11 12 13 14 14 15 15 15 16 17 18 18 18 18 18 19 19 20 20 20 21 21 22 24 25 27 29 29 27 23 23 24 24 26 24 21 20 18 18 20 20 18 19 21 22 24 25 26 26
7 4 4 4 2 3 2 1 3 3 3 4 4 6 5 3 8 5 3 3 2 3 5 7 6 4 3 4 5 6 6 6 6 6 6 8 9 11 14 13 12 11 11 11 12 11 10 10 10 11 13 13 14 15 16 16 16 17 18 18 18 19 19 19 19 20 20 20 20 21 23 24 26 28 29 29 27 24 24 25 25 26 23 19 18 18 19 19 20 20 20 21 22 23 24 26 27
6 5 4 4 3 2 3 2 3 3 4 5 5 7 5 5 9 5 4 3 4 4 5 7 8 7 5 6 7 6 6 5 5 5 5 7 8 11 14 13 12 12 11 11 12 11 10 10 10 12 13 13 14 15 16 16 16 17 18 19 19 19 19 19 19 20 19 20 20 21 23 24 26 28 29 28 28 26 26 26 27 27 20 16 16 18 20 20 20 20 20 20 22 22 22 25 27
5 5 5 4 3 1 2 3 4 4 5 5 6 8 6 7 7 4 4 4 6 6 5 6 6 8 6 6 6 4 4 4 3 4 5 7 9 11 13 13 13 13 12 12 12 11 11 11 11 12 13 13 14 15 15 16 17 17 18 19 19 19 19 19 19 19 19 19 20 21 23 24 26 28 28 27 27 27 28 28 27 24 17 15 18 19 20 22 23 22 21 19 20 22 22 24 25
3 3 4 4 2 1 2 3 5 6 6 4 3 7 8 9 7 4 6 6 6 6 8 8 4 3 2 3 3 5 5 3 3 4 5 7 9 11 12 13 14 14 12 12 12 11 11 11 11 12 13 13 14 14 15 16 17 17 18 19 19 19 19 19 19 20 20 19 20 21 23 24 26 27 27 26 26 26 28 28 27 23 17 16 19 19 20 21 24 23 21 20 19 21 22 22 23
4 2 4 3 2 2 2 2 4 5 6 4 3 5 9 9 9 7 6 6 7 4 6 9 7 3 2 4 4 5 5 4 3 4 6 8 9 11 12 13 14 13 12 12 11 11 11 11 12 12 13 13 14 14 15 16 17 18 19 19 20 20 19 19 20 20 20 20 21 22 23 24 26 27 26 25 24 26 28 28 29 25 19 18 19 18 20 22 23 22 20 22 20 19 20 21 21
5 5 5 3 1 2 4 1 3 2 5 5 2 7 12 8 7 10 6 5 8 7 4 5 8 5 4 4 2 3 6 6 4 5 7 8 9 10 11 13 14 11 10 11 11 11 11 11 12 13 13 13 13 14 15 15 16 18 19 20 20 20 20 20 20 20 20 20 21 22 22 23 25 26 25 25 23 24 26 27 30 28 19 17 18 16 19 22 21 21 20 21 18 17 18 18 18
7 6 5 3 3 1 3 1 0 3 4 4 3 8 11 7 6 8 8 6 7 8 6 4 6 4 2 3 2 3 8 8 6 6 7 7 8 9 11 13 13 11 10 10 10 11 10 11 12 13 13 13 13 14 14 15 16 18 19 20 20 20 20 20 20 20 20 20 21 21 22 22 24 25 24 24 23 24 25 27 29 28 19 13 15 16 20 22 21 24 21 16 12 14 15 15 17
7 5 5 3 2 1 3 3 2 3 5 3 5 8 7 6 7 5 7 8 6 6 8 8 8 7 6 5 5 8 10 9 8 7 7 7 8 9 11 13 13 11 10 10 10 10 10 11 12 12 13 13 14 14 15 15 16 18 19 20 21 21 20 19 19 20 20 20 21 21 21 22 23 25 24 24 23 24 24 26 28 26 19 14 17 20 20 21 21 25 19 10 9 11 12 13 16
6 4 5 2 2 3 4 5 4 3 5 3 4 8 6 2 6 7 7 8 10 10 10 11 11 13 12 11 11 12 11 11 10 9 8 8 9 10 11 13 13 11 11 11 10 10 9 10 11 12 13 13 14 15 16 16 17 19 20 21 21 21 20 20 19 20 20 21 21 20 21 21 23 24 25 24 24 25 23 24 27 24 20 18 21 23 22 20 19 22 14 7 8 10 11 13 17
4 3 4 1 3 4 6 7 8 4 2 2 4 8 7 1 3 5 5 7 10 13 15 15 16 18 17 16 14 14 13 12 11 10 10 9 10 10 11 12 12 11 10 10 10 10 9 9 10 12 13 14 15 16 17 18 19 20 20 21 21 21 21 20 20 20 20 21 21 20 21 21 23 24 25 25 23 24 21 21 24 24 21 19 21 22 22 20 18 19 9 6 8 9 11 15 18
3 3 2 3 5 5 4 6 7 3 3 1 5 6 7 4 2 2 3 6 6 8 12 13 16 17 16 17 15 14 13 12 12 11 11 11 10 11 11 10 10 10 9 9 9 9 8 8 9 11 13 15 16 17 18 19 20 20 20 20 21 20 21 20 19 20 20 21 21 21 20 21 22 24 25 25 22 22 19 18 22 23 21 19 20 21 21 19 18 17 6 6 9 10 12 16 19
2 4 2 5 6 4 2 3 4 3 2 1 5 6 7 6 3 2 2 6 7 7 9 9 12 11 6 9 11 11 11 11 12 12 12 11 10 11 10 9 8 8 8 8 8 8 8 8 9 10 12 14 16 17 18 18 18 19 19 19 20 20 20 20 19 19 19 20 20 20 20 21 22 23 25 24 21 19 17 17 21 22 21 20 20 19 20 20 19 18 6 8 9 10 12 16 19
2 4 3 5 4 2 1 0 1 3 3 1 5 5 5 7 6 5 3 5 7 7 7 5 5 5 2 5 7 8 9 9 10 11 11 10 10 9 8 8 7 7 7 8 8 8 7 8 9 10 12 12 14 15 15 15 16 17 17 18 19 19 19 19 18 18 18 18 19 20 20 20 22 22 24 24 22 19 17 18 20 22 21 22 21 19 21 22 22 19 6 9 10 10 13 17 18
4 2 2 4 4 2 1 2 2 1 3 4 6 5 3 4 6 8 6 4 6 4 2 1 4 4 3 5 6 6 6 7 8 8 8 8 8 7 6 6 6 6 6 7 8 8 8 9 10 11 12 12 13 14 14 14 14 14 15 15 17 17 18 17 17 17 17 17 17 18 19 19 20 21 22 24 23 19 18 19 21 23 23 23 22 22 22 21 23 19 5 8 11 10 12 16 18
2 1 1 4 3 3 2 2 2 2 4 7 6 4 4 2 5 8 10 15 14 9 6 6 7 6 5 5 6 6 6 6 6 6 6 6 6 5 4 5 5 6 6 7 7 8 9 10 11 12 13 13 13 14 14 14 14 14 14 14 15 16 17 17 16 16 16 16 17 18 18 19 19 20 21 23 23 20 19 20 22 24 23 23 24 23 21 19 23 21 10 4 12 12 12 13 13
2 1 2 4 2 4 3 3 3 3 4 7 5 4 3 3 4 5 13 21 19 16 17 17 15 13 10 8 8 6 5 5 4 4 5 4 4 3 4 4 4 6 5 6 7 8 9 10 11 12 13 13 14 14 15 15 15 15 15 15 15 16 17 17 17 16 16 16 16 17 18 18 18 19 21 22 23 20 19 21 22 22 22 25 25 23 20 18 24 24 16 5 9 12 10 9 10
3 3 4 4 3 4 4 3 3 2 3 4 4 5 5 5 5 8 18 20 15 14 17 20 20 18 15 12 10 7 4 4 3 4 5 4 4 3 3 4 4 5 5 5 6 7 8 9 10 11 12 12 13 14 14 15 15 15 15 15 15 16 17 17 18 17 17 16 16 17 17 18 18 18 19 21 23 21 19 19 20 22 23 25 25 24 21 19 23 23 18 12 6 10 11 11 13
2 5 6 6 4 4 4 2 2 2 2 3 4 6 5 3 5 10 14 10 5 4 7 12 16 16 15 12 10 7 5 4 4 5 5 5 5 4 2 4 4 4 4 5 6 6 7 8 8 9 10 11 12 13 13 14 14 14 14 14 14 15 16 17 18 18 17 17 16 17 17 17 18 18 19 19 21 21 19 17 18 21 23 24 24 23 23 21 20 20 23 21 15 13 15 15 14
7 11 9 7 5 3 2 2 1 2 3 2 4 5 4 1 2 6 6 2 5 4 8 8 11 12 10 9 9 8 7 5 5 6 5 5 5 4 3 4 4 3 4 5 6 7 7 8 8 9 9 9 10 11 12 12 13 13 13 13 13 13 14 16 17 18 17 17 17 17 16 17 17 18 18 18 20 20 19 17 16 18 20 22 24 22 22 20 16 16 19 18 16 14 13 12 10
13 13 9 6 3 2 1 0 1 2 1 2 4 5 3 1 1 8 9 5 8 11 10 6 7 9 8 9 9 9 9 6 7 8 5 4 4 5 5 4 4 4 5 6 7 8 8 8 8 8 8 8 9 10 11 11 12 12 12 13 13 13 14 14 16 17 17 17 17 17 17 17 17 17 17 17 18 19 19 18 16 17 18 20 22 22 20 18 13 10 11 13 15 12 9 8 8
9 7 4 4 5 2 3 2 2 3 1 4 4 3 4 2 6 8 7 6 8 9 6 4 5 8 8 9 9 10 9 7 9 7 4 5 5 6 6 4 5 5 5 7 8 8 8 8 8 8 7 7 8 9 10 11 11 12 12 12 12 13 13 13 14 15 16 16 16 16 16 17 17 17 17 17 17 18 19 18 17 16 17 18 19 20 19 18 15 9 8 10 11 11 6 7 5
3 2 3 2 5 3 4 3 3 3 1 5 3 3 5 7 9 7 6 8 6 4 3 3 4 5 7 8 8 9 8 8 9 6 6 6 6 7 6 5 6 6 5 7 8 8 8 8 8 7 7 7 8 8 9 10 11 11 12 12 12 12 12 13 13 14 15 15 15 16 16 16 17 17 17 16 16 17 18 18 18 17 17 17 17 17 17 17 16 12 10 9 6 8 8 6 3
1 1 2 2 1 3 4 4 4 2 1 5 3 1 6 8 9 4 6 8 5 3 2 3 5 5 6 7 7 8 7 8 8 6 7 7 7 8 7 5 6 6 6 6 8 8 8 8 7 6 7 7 7 8 9 10 10 11 11 11 12 12 12 12 12 12 13 14 14 15 15 15 16 16 17 17 16 16 17 17 18 17 17 17 15 16 16 15 14 12 10 10 6 4 7 6 4
2 1 2 3 0 4 5 4 4 2 2 5 4 1 6 8 8 3 2 2 2 4 4 4 6 6 6 7 8 8 7 8 8 6 6 6 7 7 7 5 6 7 6 6 7 7 8 8 7 6 6 6 7 8 9 10 10 11 11 11 11 11 11 11 12 12 13 13 14 15 15 15 15 15 16 16 17 16 16 17 17 17 16 16 15 14 15 13 12 11 9 9 8 4 3 3 3
4 1 2 2 1 3 4 2 5 4 2 4 3 2 5 4 4 1 2 3 6 10 11 9 8 8 8 8 9 9 7 8 8 5 5 6 6 7 7 6 7 7 7 6 6 6 7 7 6 5 6 6 7 8 9 10 10 11 11 11 11 11 11 11 12 12 13 13 14 15 15 16 16 15 15 15 16 16 16 16 16 17 16 15 15 14 14 14 12 11 9 8 8 6 4 1 2
4 3 1 2 2 1 3 1 5 8 3 3 3 2 7 8 9 12 13 14 16 18 19 18 15 13 11 11 11 9 8 8 7 5 5 5 6 7 7 7 8 7 7 6 5 5 6 6 6 5 5 6 6 7 8 9 10 10 11 11 11 12 12 12 12 12 13 14 14 15 16 16 16 15 15 14 14 15 16 16 16 16 16 15 15 14 13 13 13 11 10 9 7 5 4 2 1
2 1 1 2 1 2 3 3 4 8 5 2 3 4 11 12 13 21 22 18 17 18 19 20 19 17 15 14 13 10 9 8 6 5 4 4 5 6 6 6 7 7 6 5 4 4 4 5 5 4 5 5 6 7 8 8 9 10 10 10 11 11 12 13 13 13 13 13 14 15 16 16 17 16 16 15 14 14 14 15 15 15 15 14 14 14 12 11 11 10 10 10 9 7 5 2 1
4 4 4 2 1 3 4 3 3 5 4 4 4 6 11 13 12 17 21 17 14 16 16 17 18 16 15 15 13 11 10 8 7 6 4 3 4 5 5 5 4 4 4 3 3 3 4 4 4 4 5 5 6 7 8 8 9 9 9 9 9 10 11 12 12 13 13 13 14 14 15 16 17 17 17 16 15 15 14 14 14 15 15 15 14 13 12 11 11 10 9 9 9 9 8 6 5
5 4 4 3 1 4 3 3 5 4 2 4 4 5 10 13 12 14 18 15 12 14 14 16 17 15 14 13 12 12 10 7 7 6 4 3 2 2 3 3 3 3 2 2 2 3 3 3 3 4 5 6 7 7 8 9 9 9 9 9 9 9 10 10 10 11 12 13 14 14 15 15 16 17 17 17 16 16 15 14 13 13 14 15 14 13 13 12 11 10 9 8 8 8 8 8 7
4 5 3 2 1 5 3 1 5 5 2 3 2 6 11 12 11 13 13 9 7 9 10 12 13 11 11 10 10 11 11 8 8 7 5 3 1 1 0 0 1 1 1 1 1 1 2 3 3 4 5 6 7 8 8 9 9 9 9 9 10 9 9 10 9 10 11 12 13 13 14 14 14 15 16 17 17 16 16 15 14 13 12 13 13 14 14 13 12 11 10 9 8 8 8 8 8
4 3 3 2 1 4 4 2 4 5 2 4 5 7 12 12 10 11 9 6 6 5 6 8 8 7 7 8 9 11 12 10 9 8 7 4 3 2 2 2 2 2 2 2 2 2 2 3 3 4 4 5 6 7 8 8 9 9 9 9 9 9 8 9 10 11 11 11 11 12 13 13 13 14 15 15 16 16 16 16 15 14 13 12 11 12 12 13 13 12 12 11 10 10 9 9 9
3 3 3 1 3 3 3 3 5 4 1 4 5 5 9 9 7 7 6 6 7 6 5 6 6 7 6 7 9 11 12 11 10 10 8 6 4 4 3 4 3 3 3 3 2 2 2 2 2 3 3 4 5 7 8 8 8 9 9 9 9 8 8 8 9 9 10 9 9 10 11 12 12 13 13 14 14 15 16 16 15 15 14 13 11 11 11 11 12 12 12 12 12 11 10 10 10
3 2 4 1 1 1 4 4 6 4 1 2 4 5 6 5 5 6 4 4 6 5 5 5 6 7 7 7 8 10 12 11 11 11 9 7 5 4 3 3 3 3 3 2 1 1 1 1 2 2 3 4 6 7 9 9 9 9 8 8 7 7 6 8 7 7 7 8 8 9 11 12 12 12 13 13 13 14 14 14 14 14 14 13 13 12 10 10 10 11 11 12 13 12 12 11 11
3 1 3 4 3 3 4 6 5 4 3 2 4 4 5 5 4 6 5 6 5 4 3 5 6 7 8 8 7 9 11 12 12 12 9 8 6 4 3 3 3 3 2 2 2 2 2 3 3 3 5 6 8 9 10 11 10 8 8 8 8 7 7 8 9 9 10 10 10 10 11 12 12 12 12 12 13 13 13 13 13 13 13 13 13 12 11 10 9 9 10 10 11 12 12 12 12
1 1 3 4 4 2 1 4 3 2 2 2 3 1 4 6 5 6 4 6 7 6 3 3 5 7 8 8 8 9 10 11 12 11 8 7 6 4 3 4 4 4 4 4 5 6 5 6 6 6 7 8 9 11 11 11 9 8 8 8 9 9 10 10 11 12 13 12 13 13 12 12 13 12 12 12 12 13 13 13 13 13 13 13 12 11 10 10 9 9 9 9 9 10 11 11 12
0 2 4 4 3 2 1 3 2 1 3 3 4 2 2 4 6 6 3 4 6 6 4 3 2 6 7 8 9 9 9 10 10 9 8 7 6 5 5 6 6 5 6 6 6 7 7 7 8 8 9 9 10 11 10 9 7 7 7 8 9 10 10 11 11 12 13 13 13 13 13 12 13 13 12 12 13 12 13 13 13 13 12 12 12 11 11 10 9 9 9 9 9 9 10 10 10
2 3 4 3 3 3 3 4 1 1 2 3 4 3 0 5 6 5 3 0 4 6 6 5 1 4 7 9 10 10 10 9 9 9 8 8 7 6 6 6 6 7 7 7 7 6 6 6 6 7 7 8 8 7 7 7 7 7 7 7 9 10 10 11 12 12 13 13 12 12 12 12 12 13 13 14 14 14 13 13 13 13 12 12 12 12 12 12 11 11 10 9 9 9 9 10 9
3 5 3 3 3 3 3 3 1 2 2 4 4 2 0 4 6 3 2 1 6 7 6 6 2 4 8 10 11 11 11 11 10 10 9 8 7 6 6 6 7 7 7 6 5 4 4 4 4 4 4 4 5 6 6 6 7 7 7 8 9 9 10 11 11 12 12 12 13 12 12 12 12 12 13 13 14 14 15 14 13 13 12 12 12 12 13 13 13 13 13 12 11 10 10 11 10
5 5 3 3 3 3 3 2 2 3 3 6 4 2 0 3 5 4 3 4 6 6 4 5 4 6 11 12 12 12 12 12 11 10 9 7 5 5 5 5 5 5 3 2 1 1 1 1 1 2 3 5 6 7 8 8 8 8 9 9 10 10 10 11 11 11 12 12 13 13 13 13 13 12 12 12 13 13 14 14 14 13 13 13 13 13 13 14 14 15 15 14 14 13 13 13 12
4 3 2 2 3 3 3 4 3 2 4 6 4 3 1 2 5 5 5 6 5 7 6 6 7 9 13 14 13 13 12 11 10 8 7 5 4 4 3 3 2 1 2 3 4 4 4 5 5 5 7 8 9 9 9 9 9 10 10 11 11 12 12 12 13 13 14 14 14 14 14 14 13 13 13 12 13 13 13 13 14 14 14 13 13 14 14 14 14 15 15 16 16 16 16 16 15
3 2 3 3 3 4 2 3 2 2 5 3 2 2 1 5 7 6 7 7 6 7 8 10 12 14 15 15 14 13 11 10 9 7 6 6 5 4 4 5 6 7 7 8 9 8 9 9 7 7 8 9 8 8 8 9 9 10 11 12 12 13 14 14 15 15 16 16 17 17 17 17 16 16 15 15 15 16 15 15 15 15 15 15 15 15 15 15 16 16 16 16 16 17 18 18 17
2 2 3 3 2 3 3 4 2 3 3 2 3 2 2 5 5 5 8 6 4 6 8 11 15 16 15 15 14 12 11 10 8 8 8 8 9 9 10 11 11 11 12 12 11 11 10 9 8 7 8 8 7 8 8 9 10 12 12 13 14 14 15 15 16 16 17 17 18 18 19 18 19 19 18 18 18 18 18 17 17 16 16 17 17 17 17 17 17 18 18 18 18 19 19 19 19
2 3 4 3 3 2 3 4 2 4 4 3 4 2 3 3 2 4 8 8 5 3 7 10 13 14 15 15 14 13 12 10 9 10 11 12 12 13 13 13 13 13 13 12 11 10 9 8 8 7 8 8 8 8 9 10 12 13 13 14 15 15 16 16 16 16 17 17 18 18 17 18 18 18 18 18 18 18 18 18 17 17 16 16 17 17 18 18 19 19 19 19 20 21 21 21 21
1 2 4 2 2 3 1 3 4 2 3 3 3 3 4 3 4 5 5 6 3 2 6 10 13 14 15 15 15 15 13 11 11 12 13 14 14 14 13 13 12 12 11 11 10 9 8 8 8 7 8 8 8 9 10 11 12 12 13 14 15 15 15 15 16 16 16 16 16 16 16 17 17 17 18 18 18 18 18 17 17 17 16 16 16 16 17 18 18 19 19 19 19 20 21 22 22
1 2 1 2 3 5 4 1 1 3 1 3 2 3 5 3 4 5 4 0 2 1 5 9 13 14 15 15 16 16 14 13 13 14 14 15 15 14 13 12 12 11 11 10 10 9 8 8 8 7 8 8 8 9 10 11 11 12 13 14 14 14 14 15 16 16 16 15 15 16 16 16 17 18 18 18 18 18 18 18 18 18 17 17 16 16 16 16 17 18 18 19 19 19 20 21 22
2 2 3 2 2 4 3 0 3 4 0 4 2 3 5 2 2 5 3 4 6 5 5 7 10 13 15 17 18 17 16 15 16 17 17 16 15 14 14 13 12 11 11 10 9 8 8 8 7 7 7 7 8 8 9 10 10 11 12 12 13 13 14 15 16 16 16 15 16 16 17 17 17 18 18 18 18 18 18 18 18 18 18 18 17 16 16 16 16 17 17 17 18 18 19 19 20
2 2 2 1 2 1 2 1 1 1 2 4 4 4 3 3 4 3 4 9 9 8 7 6 9 14 17 18 20 19 18 18 19 19 19 18 16 15 14 13 13 12 11 9 8 8 7 7 7 6 6 7 7 8 8 8 9 10 10 11 12 13 14 15 15 16 15 16 17 17 17 18 18 18 18 18 18 18 19 19 19 19 19 18 18 17 17 16 16 16 17 17 17 17 18 19 20
2 1 1 1 3 3 1 1 3 2 2 3 4 5 3 6 6 6 9 12 11 10 9 7 12 18 20 20 22 22 20 20 21 21 20 19 17 16 15 14 13 12 11 9 8 7 7 6 6 6 6 6 6 5 6 6 7 9 9 10 11 12 13 14 15 15 15 17 17 17 18 18 18 18 18 18 19 19 20 20 20 20 20 20 19 19 18 18 18 18 17 18 18 18 18 18 19
2 1 0 1 1 2 1 1 1 3 2 2 1 4 6 6 4 7 10 10 10 12 10 9 15 21 21 20 23 23 21 21 22 23 22 20 19 17 16 15 13 12 11 9 8 7 7 6 5 5 5 4 3 3 4 5 7 8 8 9 11 11 12 13 13 14 15 16 16 17 18 18 17 18 18 19 19 20 20 20 20 20 21 21 21 20 20 20 20 19 19 19 19 19 19 19 19
4 4 3 3 3 3 2 3 2 2 2 3 3 3 8 6 4 6 7 6 8 10 10 11 18 23 20 19 21 21 20 21 23 24 23 22 20 19 18 16 14 13 12 11 9 8 7 6 4 3 2 2 2 3 4 5 6 7 8 9 10 10 11 11 12 13 15 16 16 17 17 16 17 18 18 19 20 20 20 20 20 21 21 22 22 22 22 22 21 21 21 21 22 22 22 22 22
Wind_Direction
162 138 121 106 106 104 73 70 85 5 71 93 294 225 254 223 149 192 251 243 240 227 190 187 162 173 187 243 237 249 247 208 194 153 239 295 336 334 333 333 332 336 334 333 335 339 339 333 330 334 340 342 341 341 342 340 337 330 326 322 319 318 317 319 319 320 321 324 327 329 330 331 335 333 330 327 325 325 319 313 309 304 297 294 293 292 291 290 290 289 287 281 271 248 239 243 243
161 139 116 106 72 78 87 46 88 335 43 13 280 188 251 321 107 217 213 200 174 164 169 183 209 224 243 265 261 281 267 237 239 248 278 314 332 335 336 331 330 333 332 333 336 341 338 332 330 335 342 344 345 344 345 344 340 333 329 328 325 323 322 323 322 323 324 327 329 330 331 332 335 333 330 327 325 323 319 314 308 305 301 297 295 292 289 287 283 282 280 276 274 260 242 240 238
153 138 120 121 65 64 107 37 84 51 61 306 273 236 223 163 218 229 214 195 151 146 170 196 246 249 240 259 248 243 262 248 258 273 293 313 328 337 336 330 331 333 333 336 338 342 337 334 332 335 343 346 347 346 346 346 343 338 337 336 332 330 328 325 324 324 325 328 329 329 329 330 330 328 325 322 321 318 313 307 305 306 305 303 300 294 287 284 280 275 277 273 272 267 250 241 237
145 136 116 114 75 57 74 43 125 120 107 217 277 273 215 192 224 237 222 180 154 166 177 193 262 245 223 243 252 240 260 268 281 290 295 311 329 336 335 332 333 335 338 339 338 340 337 335 333 338 344 345 347 345 345 346 344 343 342 340 337 334 330 327 326 325 326 327 327 326 326 326 323 321 319 318 317 314 309 304 302 301 301 301 299 296 286 279 276 271 270 267 266 265 260 247 236
143 125 108 104 86 66 85 73 110 109 186 194 189 274 232 210 230 241 180 156 181 190 192 214 269 255 240 248 246 234 261 279 310 298 295 315 330 336 337 335 336 338 340 339 338 337 335 334 334 341 343 342 343 341 341 344 345 344 343 342 341 337 332 329 326 324 325 325 324 324 323 322 320 319 318 319 319 316 315 314 309 304 301 299 297 298 291 277 272 269 264 262 262 260 262 251 232
142 106 87 98 89 90 115 113 131 187 225 172 168 261 246 221 219 213 161 169 207 215 226 235 253 268 268 255 241 239 262 283 298 299 301 317 328 337 339 338 340 339 340 341 337 333 331 334 336 340 339 339 339 338 340 341 343 343 342 342 341 338 334 329 325 324 324 324 323 322 323 322 322 322 322 321 321 320 321 322 319 314 310 307 303 306 305 288 273 273 271 266 263 257 257 251 230
146 109 75 96 72 47 108 149 184 227 239 168 178 244 261 230 196 176 143 160 220 229 234 234 244 266 271 256 250 249 261 275 282 295 303 315 324 338 341 340 341 338 342 342 333 327 328 333 334 336 336 336 337 335 337 338 340 341 340 340 340 339 335 330 327 325 324 324 323 323 324 324 325 324 325 324 322 322 323 325 323 321 317 315 310 308 311 303 285 276 277 273 267 259 253 252 235
143 120 69 92 48 27 91 134 217 211 220 214 222 239 273 234 175 160 155 162 216 228 229 232 230 233 257 247 252 258 271 281 283 293 300 312 319 335 341 340 343 342 343 338 326 321 324 330 330 332 334 334 336 334 334 335 337 339 338 337 337 338 336 333 328 326 325 324 323 325 326 326 327 327 327 327 324 323 325 327 324 323 320 316 316 313 312 309 301 290 282 276 271 263 253 251 240
122 103 78 81 74 39 43 342 268 241 247 261 257 245 264 215 179 166 173 213 247 232 236 228 206 210 265 261 263 279 284 279 279 290 297 308 316 328 336 341 344 344 342 331 321 319 320 326 330 332 333 335 336 335 332 332 335 337 336 335 335 337 337 334 330 327 325 325 325 326 328 329 329 330 330 329 329 330 332 331 326 327 325 319 321 321 316 311 306 300 295 287 277 267 255 251 243
96 75 98 74 79 46 343 291 264 265 253 261 273 250 238 197 187 182 186 226 247 240 247 216 206 230 266 284 280 292 287 278 278 285 295 305 315 322 332 341 344 343 337 327 323 324 324 328 332 333 335 336 336 334 331 330 334 336 333 333 335 336 337 334 330 328 327 328 328 328 330 331 332 332 332 333 336 338 337 334 329 329 328 323 325 322 317 314 309 303 299 295 287 273 255 250 245
82 57 94 76 75 82 265 242 268 272 273 301 290 249 220 199 187 199 212 239 253 234 228 197 211 237 254 285 283 306 301 297 295 286 299 309 318 322 332 342 343 339 333 330 330 330 331 333 335 337 338 336 335 332 330 331 333 333 332 333 334 335 336 334 331 330 330 331 330 330 332 333 334 334 334 337 340 340 339 337 334 332 330 327 326 320 314 312 310 304 298 295 292 280 258 249 243
89 45 78 85 131 188 209 220 274 288 303 317 274 226 201 192 177 201 213 223 244 232 232 212 212 241 232 274 288 333 333 319 303 293 303 313 319 324 334 342 341 336 335 338 336 333 334 336 338 340 338 332 332 332 332 333 331 332 332 332 333 335 335 334 332 331 333 334 332 333 334 334 336 336 337 339 340 340 340 340 338 336 335 330 324 317 313 312 309 305 297 293 290 280 262 249 242
109 136 88 95 161 160 146 205 280 319 315 263 221 191 179 184 194 216 208 212 221 217 248 227 227 254 248 271 305 348 2 352 321 300 303 314 321 327 335 341 341 337 341 344 339 335 337 340 341 341 335 329 330 333 333 333 332 332 331 332 334 335 336 334 334 334 335 335 334 335 335 336 338 337 338 339 339 341 341 341 341 339 332 325 321 315 317 319 314 308 297 294 288 269 260 249 239
122 140 102 113 88 112 152 211 292 340 289 254 206 173 174 185 210 220 208 219 230 219 256 233 224 246 265 265 301 6 4 350 328 306 307 318 325 332 337 342 344 342 346 346 341 336 339 341 339 337 332 328 330 332 335 335 333 333 332 333 336 336 338 337 335 336 337 337 337 336 335 338 339 338 338 338 338 339 340 341 342 342 332 318 318 319 324 326 321 315 300 294 283 258 253 243 233
125 120 93 111 58 3 183 205 140 136 252 251 157 175 179 198 214 223 222 231 254 237 243 233 209 224 249 203 178 333 336 330 325 319 317 324 329 336 339 344 346 347 348 345 342 335 337 338 335 333 328 328 330 332 336 337 335 334 333 335 336 337 339 339 338 338 338 338 337 335 336 339 339 338 338 336 338 338 337 339 342 347 343 321 320 327 327 324 325 323 308 289 270 251 244 228 223
118 107 76 89 97 262 204 186 139 132 253 235 157 176 173 211 217 224 234 233 258 252 242 235 220 229 237 226 265 305 316 316 322 323 321 324 327 335 338 343 346 347 346 341 339 333 335 335 331 328 327 329 331 335 337 338 336 334 336 337 337 338 340 341 340 340 339 338 337 335 337 339 340 339 338 337 341 339 337 339 344 353 352 338 335 340 339 325 324 329 314 275 248 242 231 218 218
107 88 69 79 164 213 197 181 177 174 261 258 174 180 159 236 227 225 250 246 254 257 252 246 240 245 251 257 273 289 298 301 307 311 314 317 322 331 335 339 343 346 342 337 335 331 334 333 330 328 328 331 332 335 336 336 336 335 338 339 339 339 342 344 342 342 341 340 337 336 337 339 341 340 339 340 343 343 341 343 348 351 348 344 340 344 352 340 330 334 319 251 235 233 221 216 214
104 93 91 174 188 202 190 181 195 175 327 273 187 182 171 195 225 226 259 253 258 262 258 255 254 254 257 264 271 279 287 289 295 302 307 312 317 324 332 336 339 341 337 334 331 330 335 333 332 331 331 333 332 334 335 336 335 336 339 339 341 342 344 346 345 343 343 341 337 337 338 338 343 343 343 343 343 345 345 347 349 347 342 341 338 345 358 350 339 339 321 226 229 227 218 215 210
91 99 108 229 203 203 194 181 198 174 14 273 180 186 189 198 228 242 257 259 278 278 268 260 260 264 264 265 269 275 278 281 290 298 303 308 312 318 328 334 337 337 332 331 329 328 334 333 333 333 333 332 332 336 337 338 337 337 339 339 342 345 347 349 346 345 345 343 339 338 339 339 343 346 346 345 342 343 347 352 350 348 346 341 338 350 356 346 346 348 324 216 226 224 217 214 208
85 101 148 245 215 205 212 189 198 208 316 344 175 193 204 217 247 266 262 290 294 269 265 259 263 277 275 263 264 269 272 276 287 295 299 303 308 315 325 332 335 333 328 328 327 326 328 329 332 333 333 333 334 339 340 341 342 341 339 339 343 347 350 350 349 348 347 345 341 341 341 341 343 347 349 347 345 344 350 0 356 351 354 352 347 352 355 353 356 354 321 213 224 227 215 210 204
118 121 180 227 198 165 181 183 326 250 263 218 179 178 214 234 246 256 268 319 294 262 260 257 280 294 230 242 259 266 272 280 291 294 297 303 307 314 323 329 330 328 325 323 322 320 320 322 328 331 331 333 336 339 340 343 346 342 340 339 342 348 350 351 352 350 350 347 344 345 344 343 343 347 351 351 351 353 358 3 1 357 360 3 1 356 359 5 2 354 324 214 217 226 215 202 197
111 97 210 197 170 131 112 15 1 248 203 181 170 164 217 236 246 252 234 236 256 262 268 265 1 342 245 243 255 266 280 292 302 303 304 306 309 313 318 320 320 321 319 315 315 315 315 320 328 334 332 332 335 337 340 345 347 343 340 340 341 346 349 350 353 353 353 349 347 348 349 347 344 346 353 355 355 1 7 7 7 6 6 10 12 2 4 11 1 0 360 216 210 216 216 198 192
126 323 221 176 145 90 94 41 51 104 163 176 176 200 225 233 263 259 236 238 252 263 265 273 302 308 282 264 259 274 292 303 315 317 313 308 309 310 305 306 308 309 309 309 311 314 316 323 331 335 333 333 337 339 343 347 346 344 341 339 340 343 346 349 352 356 355 353 351 350 352 351 348 349 353 357 358 6 15 13 9 6 6 15 19 12 10 12 4 8 17 246 210 207 208 195 188
121 201 195 166 110 84 100 86 103 113 177 189 189 221 224 239 275 277 258 263 273 273 265 267 272 275 275 266 263 280 296 302 312 306 299 300 302 295 290 294 295 298 307 309 312 318 319 324 330 332 332 335 340 343 348 351 348 347 344 340 340 340 342 345 349 355 357 356 355 352 353 353 352 353 354 358 0 8 19 19 11 3 7 17 22 19 16 18 11 8 10 1 201 194 193 191 174
88 157 171 140 112 115 112 101 124 147 198 202 216 244 250 261 277 274 276 286 293 280 267 258 255 257 259 256 258 272 281 283 290 282 283 290 287 283 284 286 289 298 313 316 318 325 323 323 327 328 331 336 342 347 351 353 352 351 348 342 340 338 338 342 345 351 355 357 357 354 354 353 355 358 356 358 2 8 17 21 14 6 10 18 22 24 25 26 19 16 27 46 115 155 153 158 152
121 136 142 122 112 129 136 152 157 203 229 227 246 268 269 272 296 276 281 295 276 291 297 260 241 239 246 247 249 256 258 255 254 260 266 271 276 285 280 279 291 307 320 326 326 324 321 323 325 326 331 337 341 348 352 353 354 352 351 345 340 338 337 339 342 345 351 355 357 355 355 354 355 0 360 358 2 8 13 17 14 10 13 18 20 26 30 31 29 42 59 65 78 107 125 132 129
122 114 110 102 111 136 147 212 246 273 256 270 251 265 266 239 337 269 262 197 206 293 328 283 236 230 236 236 238 245 242 231 235 246 250 260 276 292 282 277 289 303 318 330 332 327 324 324 324 324 328 335 340 346 351 351 352 352 352 348 342 339 337 336 338 340 346 351 355 356 356 355 356 0 2 0 3 7 12 14 11 9 12 16 19 23 30 35 45 62 64 63 70 89 116 113 105
115 108 99 63 74 137 33 254 309 319 264 302 260 259 290 110 203 249 252 245 260 287 298 280 237 232 232 231 236 238 235 226 237 244 244 262 277 285 283 279 282 290 309 321 333 332 328 323 320 322 325 331 337 341 345 347 349 351 352 351 346 342 340 337 335 336 342 347 351 355 356 356 357 359 2 3 3 5 11 14 12 9 9 13 16 19 26 36 56 75 53 45 55 75 130 125 102
111 102 110 4 14 61 355 3 342 334 292 318 306 304 332 213 228 256 279 283 286 291 271 248 237 233 233 235 239 238 237 234 237 244 257 274 277 279 281 274 275 285 300 312 326 330 324 321 317 317 322 325 331 334 339 343 346 349 350 352 351 347 345 341 337 336 339 344 348 352 355 356 357 358 0 4 5 4 7 14 16 14 13 14 16 17 22 35 56 83 67 57 59 60 111 148 128
111 62 117 7 6 4 345 2 328 325 304 327 346 325 304 256 250 263 293 291 293 300 235 232 238 227 232 234 238 243 243 241 239 246 264 274 276 275 277 267 270 281 293 306 316 321 319 318 315 313 316 319 324 329 333 338 342 347 349 351 352 352 352 348 343 340 340 343 346 349 352 355 357 357 358 2 6 5 4 9 15 18 19 20 20 17 18 29 49 74 79 83 87 49 67 123 160
109 33 87 33 349 276 325 8 335 343 323 344 45 269 270 274 285 290 292 287 278 276 237 238 248 234 238 238 242 248 241 239 242 245 258 271 275 273 276 265 265 274 283 297 304 312 316 314 313 309 311 314 320 326 331 336 340 343 346 348 349 352 355 354 351 347 344 343 344 346 348 352 356 357 357 358 3 6 5 5 9 17 23 25 26 22 18 22 37 55 70 79 90 34 42 85 128
37 72 301 343 99 267 311 13 15 54 294 346 66 219 272 277 285 305 330 310 269 281 269 246 253 251 252 250 252 252 235 228 237 246 260 272 273 272 270 258 256 264 270 283 295 307 313 312 312 308 309 316 321 328 333 335 338 340 343 346 347 349 354 356 357 353 349 346 344 343 344 348 352 355 356 356 359 2 5 4 4 10 19 26 30 27 21 22 29 37 45 59 72 72 41 66 129
355 69 229 285 104 287 310 30 24 31 330 342 45 244 275 267 267 3 35 313 307 299 284 266 258 257 257 255 254 255 242 227 230 243 262 270 276 276 269 256 251 256 263 274 289 303 309 310 312 311 312 321 329 333 337 338 339 341 342 345 347 348 351 355 359 359 356 353 349 346 345 346 349 352 355 356 357 358 2 4 3 4 10 18 27 31 26 22 25 28 29 39 56 74 90 110 202
325 19 94 241 195 253 303 318 1 14 22 335 5 263 256 260 276 282 281 291 297 291 281 273 265 259 256 254 252 254 252 232 219 230 252 273 288 285 275 261 253 254 261 272 285 297 304 307 313 318 320 329 338 339 342 343 344 346 346 348 350 350 352 355 358 1 0 358 355 352 349 347 348 349 353 355 356 356 357 0 1 0 4 10 18 28 32 28 25 21 18 23 32 43 66 103 207
226 275 125 300 287 228 267 270 345 12 18 319 327 274 266 274 282 283 286 296 293 283 276 270 265 259 250 248 247 246 250 235 212 224 244 274 292 292 287 272 259 256 260 270 283 296 302 308 320 330 332 339 346 346 350 351 350 353 353 353 355 353 355 357 357 0 2 359 357 356 353 353 351 349 351 353 354 356 356 357 358 357 359 5 9 16 25 31 32 26 17 11 11 11 11 8 305
166 172 148 147 275 261 249 257 317 16 360 288 258 260 278 287 288 288 296 306 294 278 272 264 259 253 244 243 243 239 241 231 212 217 228 261 285 293 293 284 269 262 263 272 285 300 309 321 337 342 344 347 347 347 349 350 350 356 358 359 2 359 360 4 360 360 4 360 358 357 356 356 355 352 352 352 352 354 356 357 357 356 355 358 3 8 14 20 24 30 28 16 7 4 359 350 330
122 110 91 111 210 285 278 288 318 14 351 270 247 268 280 282 282 287 298 306 293 273 264 258 253 247 244 241 236 229 228 223 209 205 208 230 268 291 293 290 281 274 277 284 292 310 324 345 356 352 354 353 348 348 346 344 347 353 357 1 8 7 5 10 5 3 7 3 0 359 356 356 355 353 353 354 354 354 356 357 357 357 354 353 355 360 5 9 13 17 21 21 14 3 357 356 345
84 99 77 46 225 265 274 290 313 353 354 273 324 317 285 279 282 287 297 302 290 273 255 254 251 243 241 235 224 217 215 212 203 197 194 195 199 189 225 298 307 318 325 328 340 357 8 23 22 9 5 357 348 349 348 345 346 349 352 356 5 9 5 4 1 3 10 6 0 358 355 355 354 351 351 353 354 355 357 359 358 358 357 354 352 353 355 359 3 5 4 7 10 5 358 356 351
70 89 90 17 296 277 298 314 322 351 338 280 350 344 291 286 287 284 288 274 280 289 256 247 236 221 216 212 208 204 206 208 202 195 186 177 159 136 116 105 94 78 70 63 66 60 49 43 35 25 12 359 349 351 354 350 346 346 350 353 358 5 3 356 354 356 1 2 356 351 348 350 351 349 348 349 351 354 356 360 2 2 2 360 355 351 350 350 352 355 355 356 357 359 358 354 351
60 77 103 283 316 360 315 305 324 327 290 286 331 328 288 297 310 292 284 268 276 283 263 248 218 202 187 188 198 199 202 204 196 187 179 174 158 140 122 111 103 94 94 92 93 87 69 48 32 30 6 348 345 352 355 351 346 345 351 356 356 3 359 349 352 348 345 349 346 341 338 341 348 348 346 347 347 349 352 356 1 5 6 6 5 359 353 350 347 347 348 348 348 349 351 352 350
3 96 124 175 285 309 255 286 323 325 357 340 346 333 296 321 338 295 300 307 289 277 260 240 200 189 180 180 186 191 197 193 185 180 178 178 168 149 126 110 102 102 118 134 134 120 67 355 350 358 333 321 325 336 344 347 348 347 352 358 357 5 358 346 352 345 339 343 338 336 334 336 344 344 343 343 343 344 346 348 354 0 4 6 10 9 5 358 350 346 344 342 343 344 345 346 346
335 231 167 161 178 220 274 311 342 15 23 7 25 3 294 317 311 260 301 340 310 301 268 217 192 183 180 175 172 178 185 183 180 180 181 183 177 161 137 134 139 151 195 224 238 262 278 294 303 308 303 304 313 325 336 344 348 350 356 1 1 11 10 357 356 352 354 355 348 346 340 335 337 337 337 337 336 336 337 339 344 350 354 359 6 10 11 9 1 353 348 344 342 341 340 340 341
18 221 173 152 143 148 342 353 13 32 301 316 44 94 259 317 298 245 306 339 309 309 295 219 191 190 187 173 171 175 179 183 185 187 188 186 184 176 170 193 202 207 233 248 255 265 268 273 279 284 289 298 312 326 337 344 350 355 1 2 1 7 9 4 358 351 354 355 351 351 346 338 335 332 331 329 327 329 331 333 337 341 344 347 353 358 1 4 4 1 358 354 351 345 340 339 339
238 190 137 131 122 145 140 66 72 244 277 334 22 78 209 297 276 256 306 332 308 303 278 276 178 183 185 173 174 174 175 182 186 189 190 184 190 189 191 216 229 230 244 255 260 269 273 274 277 282 290 303 318 332 343 352 359 2 3 360 355 359 1 360 356 350 350 350 347 347 346 342 338 333 330 327 325 326 327 329 331 333 336 337 340 342 344 347 349 350 351 351 352 349 343 341 342
240 189 138 148 146 146 132 90 88 301 345 319 330 29 161 264 276 306 1 225 270 263 245 266 290 155 160 161 166 166 167 171 171 174 177 180 192 200 209 228 245 251 257 266 271 277 282 285 288 291 300 316 331 347 359 7 10 5 3 1 355 357 358 356 355 352 349 348 345 343 341 339 337 334 331 329 328 327 327 327 326 327 327 328 329 329 331 332 333 334 336 338 339 339 336 334 335
166 152 102 78 81 82 85 84 102 28 10 256 276 5 264 266 279 312 27 213 238 243 247 257 241 147 145 147 152 157 159 159 159 164 171 183 196 211 231 246 258 266 270 276 279 281 284 288 298 307 327 350 8 23 25 23 21 14 12 11 7 6 4 360 356 352 350 348 346 345 343 339 336 332 329 329 328 327 329 327 324 322 320 320 320 320 321 320 322 323 325 328 329 329 327 325 326
130 118 76 53 35 40 56 50 87 56 317 251 263 312 193 279 278 230 198 218 203 195 228 246 209 149 145 146 149 154 155 156 161 167 175 187 203 224 250 262 266 273 278 281 281 262 264 320 5 29 55 56 51 47 41 37 34 30 27 23 19 15 11 6 360 356 355 353 350 350 349 346 341 336 330 327 325 323 324 325 324 322 320 318 316 315 314 313 314 315 317 320 322 322 321 320 322
112 94 68 45 346 6 28 356 35 86 271 260 264 283 165 224 262 239 235 249 212 178 180 189 177 150 144 147 151 155 156 160 165 171 177 183 200 220 235 243 236 165 122 116 110 110 107 95 84 84 80 67 56 49 42 38 34 32 30 26 23 21 17 13 10 7 4 2 1 358 354 351 347 343 337 331 327 324 321 318 317 317 316 316 315 312 312 311 311 311 311 313 314 316 316 317 318
73 66 59 49 350 1 1 322 350 200 246 270 267 274 235 233 244 248 253 258 240 210 185 168 165 154 147 149 152 155 159 162 164 164 168 171 172 172 160 149 138 128 122 116 112 107 102 97 90 83 75 64 54 47 41 37 37 37 34 31 28 25 22 18 16 14 10 8 6 2 358 355 352 350 347 344 342 339 334 329 322 318 315 314 313 312 310 310 309 309 309 309 309 309 309 312 314
87 119 89 83 62 31 317 282 301 275 262 283 284 282 280 271 265 238 236 252 253 222 199 174 163 156 153 155 155 159 162 163 162 158 156 155 148 142 138 134 131 127 119 112 108 104 100 95 87 77 73 68 59 52 48 44 43 41 37 33 30 26 22 20 17 16 14 10 8 4 1 360 357 355 355 353 351 348 345 343 338 332 326 320 316 314 312 310 309 307 307 307 307 306 306 307 308
134 161 118 120 145 143 256 248 242 285 294 297 301 279 199 231 270 228 239 271 290 230 199 184 171 162 161 162 163 165 165 161 158 153 149 147 142 139 136 132 127 121 116 113 110 106 103 97 89 82 79 77 69 60 53 46 42 39 35 30 27 24 21 20 19 17 15 12 10 7 5 5 4 2 1 359 356 353 349 348 346 343 339 333 328 324 321 318 316 314 312 310 309 308 307 307 307
194 155 97 91 170 150 165 195 191 237 317 301 279 235 217 220 268 283 288 287 283 190 186 184 179 174 170 170 169 168 167 162 158 157 152 148 145 143 138 132 128 125 123 124 121 118 112 102 95 89 83 77 67 58 48 43 40 35 31 28 25 24 21 20 19 18 17 15 11 9 9 9 9 7 5 3 0 358 355 353 351 350 349 345 340 335 331 327 325 323 320 318 316 313 312 311 310
170 117 144 223 150 118 112 207 300 68 22 283 261 255 295 318 283 309 360 196 238 217 186 186 182 180 179 179 174 172 171 164 161 162 159 156 153 149 144 139 138 138 139 138 132 127 119 107 99 88 80 73 62 53 46 42 39 32 30 27 23 22 19 18 19 18 17 15 11 11 11 10 8 6 5 3 2 1 359 358 356 356 356 355 352 347 342 339 335 332 330 328 327 324 321 319 317
101 125 215 221 112 94 99 355 351 42 231 280 302 261 293 328 276 317 20 183 227 244 215 203 195 190 191 187 179 176 173 167 166 165 165 164 162 159 153 151 152 152 151 148 139 129 120 110 100 87 76 68 58 51 47 42 37 32 30 27 24 22 20 19 19 18 15 11 10 12 11 9 9 8 6 4 3 2 2 2 2 2 2 1 1 359 355 351 346 343 341 340 338 335 333 331 329
93 150 178 127 131 122 71 122 259 356 285 287 308 291 263 215 224 260 216 201 211 221 221 221 212 205 200 190 181 178 174 171 170 169 171 171 169 168 163 163 165 162 159 155 145 136 127 115 102 88 71 62 55 47 43 38 34 33 31 30 29 25 25 24 22 19 15 11 13 13 12 12 12 10 8 7 5 5 6 6 6 6 6 5 6 5 4 2 359 355 352 351 350 347 343 342 342
57 76 8 32 153 164 136 136 175 209 259 274 314 325 271 230 216 196 206 208 195 196 205 213 214 209 203 192 184 182 178 175 174 174 176 176 175 174 172 174 174 169 169 165 155 149 136 118 101 85 73 68 62 52 43 38 39 40 37 36 34 31 30 28 24 20 15 15 17 15 14 14 12 10 10 10 9 9 9 8 8 7 6 7 7 7 7 7 5 3 1 359 358 356 352 351 350
115 125 183 274 140 141 201 302 134 141 175 198 287 306 269 247 210 187 209 215 198 195 195 201 211 208 202 194 189 185 181 178 178 179 180 180 181 179 178 181 180 176 178 173 166 161 139 117 101 88 85 86 81 69 59 53 53 51 45 41 39 36 33 28 24 19 17 19 19 17 16 14 10 10 11 10 9 10 10 9 7 5 5 5 5 6 6 6 6 5 4 2 359 358 356 354 352
155 164 182 178 151 121 123 298 311 102 151 181 162 268 271 258 206 199 216 215 211 211 200 200 208 204 200 196 190 187 184 181 182 183 183 185 186 185 184 184 183 185 186 180 175 165 142 127 122 119 126 131 115 98 79 67 63 53 44 42 38 34 32 27 22 19 19 19 17 17 16 11 8 9 8 7 6 7 7 6 4 3 4 3 3 3 3 3 3 3 3 3 0 358 356 354 353